Probability
0 0 0 0 0 0 0 0 0 0 0 0 0 0 0 0 1 4 5 5 4 4 4 5 6 8 9 8 6 5 5 6 6 6 4 1 0 0 0 0 0 0 0 0
0 0 0 0 0 0 0 0 0 0 0 0 0 0 0 0 1 3 5 6 5 4 5 6 7 9 11 11 7 6 7 7 6 7 6 3 1 1 1 0 0 0 0 0
0 0 0 0 0 0 0 0 0 0 0 0 0 0 0 1 1 2 4 5 6 6 7 9 10 11 13 13 9 6 7 7 6 6 6 4 4 3 2 2 2 2 1 0
0 0 0 0 0 0 0 0 0 0 0 0 0 0 1 2 1 1 3 4 6 8 10 12 13 14 15 14 10 7 7 7 6 5 5 5 5 4 3 2 3 3 2 1
0 0 0 0 0 0 0 0 0 0 0 0 0 0 1 1 1 1 2 4 6 9 12 14 15 16 16 14 11 8 9 10 7 6 6 6 6 4 2 1 2 3 3 2
0 0 0 0 0 0 0 0 0 0 0 0 0 0 0 0 0 0 2 6 8 10 13 15 16 17 18 16 12 10 12 13 11 9 9 8 7 6 4 2 3 5 4 3
0 0 0 0 0 0 0 0 0 0 0 0 0 0 0 0 0 1 3 8 10 11 13 15 16 17 18 16 14 13 15 17 15 13 11 9 8 8 7 6 6 6 5 5
0 0 0 0 0 0 0 0 0 0 0 0 0 0 0 0 1 2 5 8 10 10 12 15 15 15 15 16 16 16 18 19 18 15 13 10 9 8 8 8 8 7 6 5
0 0 0 0 0 0 0 0 0 0 0 0 0 0 0 0 1 3 6 8 8 9 12 14 14 13 12 14 16 16 18 20 19 17 14 11 9 8 8 8 8 7 7 7
0 0 0 0 0 0 0 0 0 0 0 0 0 0 0 1 2 3 5 6 7 8 11 14 16 14 10 9 12 14 15 18 19 18 15 12 10 8 7 6 6 6 7 9
0 0 0 0 0 0 0 0 0 0 0 0 0 0 0 1 2 2 3 5 7 9 12 16 19 18 11 8 9 11 13 17 19 19 17 14 11 8 6 5 5 5 7 9
0 0 0 0 0 0 0 0 0 0 0 0 0 0 0 2 2 2 2 5 8 10 12 16 21 22 18 13 10 9 12 16 19 18 17 15 11 7 5 5 7 8 9 9
0 0 0 0 0 0 0 0 0 0 0 0 0 0 0 1 2 2 3 6 10 12 14 18 21 22 21 18 14 10 11 15 18 17 16 14 12 9 7 7 10 13 14 12
0 0 0 0 0 0 0 0 0 0 0 0 0 0 0 0 1 2 5 9 11 12 16 19 20 18 18 18 17 15 14 15 17 16 16 15 15 14 12 11 12 16 18 16
0 0 0 0 0 0 0 0 0 0 0 0 1 1 1 1 1 2 6 11 12 12 15 18 18 18 18 17 18 18 20 19 19 18 19 19 19 18 17 14 14 17 18 17
0 0 0 0 0 0 0 0 0 0 1 1 2 3 4 4 3 3 7 12 14 13 12 13 15 17 18 18 17 19 23 23 22 23 24 24 24 24 22 19 16 16 16 15
0 0 0 0 0 0 1 1 0 1 2 3 4 6 7 5 4 5 8 13 17 16 13 11 11 13 16 16 16 18 21 23 23 25 26 27 27 27 26 23 20 18 17 16
1 1 0 0 0 1 1 1 1 1 3 5 8 9 9 6 5 6 10 15 20 21 16 13 11 12 13 15 16 15 15 18 21 24 25 25 26 27 27 26 24 22 20 18
0 0 0 0 0 1 1 1 2 2 4 6 9 10 9 8 7 10 13 17 21 22 19 15 13 12 13 14 15 13 11 12 17 20 22 23 25 25 25 26 26 25 23 21
0 0 0 0 0 1 1 1 2 2 4 8 10 10 10 10 12 15 17 19 21 22 20 16 13 12 13 15 14 12 11 12 14 17 19 21 23 23 23 25 26 25 24 23
0 0 0 0 0 1 2 2 3 4 6 10 12 12 11 13 14 16 19 20 22 23 21 17 14 13 15 17 17 14 14 15 15 16 18 20 21 20 20 22 23 23 23 22
1 1 0 0 1 2 3 3 4 7 10 13 14 13 12 12 13 15 18 20 21 21 19 15 14 15 16 18 18 16 15 15 15 16 17 18 17 16 16 17 18 18 19 19
1 2 1 1 3 4 4 5 6 9 12 13 14 13 11 12 13 16 19 19 17 14 13 13 14 15 14 15 16 16 16 16 16 18 18 16 15 14 14 15 16 16 17 17
1 2 2 2 3 3 4 6 8 10 11 11 12 12 12 12 15 18 20 18 13 9 10 12 14 14 13 13 14 17 19 20 21 21 20 16 15 15 17 17 16 16 16 17
0 1 2 4 5 4 4 6 7 8 9 8 9 11 13 14 15 17 17 16 13 10 10 12 13 13 13 13 15 18 21 22 24 24 21 16 14 16 18 18 16 15 15 16
0 1 2 5 7 6 5 4 4 6 7 7 7 10 13 14 15 15 14 15 14 13 11 11 12 13 13 14 15 19 22 23 24 24 20 15 13 15 17 17 15 13 13 14
Wind_Speed
6 7 5 3 3 4 4 3 1 2 2 1 2 3 5 6 5 5 5 5 5 5 5 6 7 8 7 7 7 6 6 5 4 4 4 3 3 3 2 2 3 3 3 3
8 7 4 3 3 5 5 5 3 3 3 1 2 2 4 5 6 5 5 5 5 5 6 6 7 7 8 8 8 8 7 6 6 4 3 3 2 2 2 2 2 3 3 3
9 2 2 5 5 5 6 5 4 2 3 5 4 5 5 6 6 5 5 5 5 5 6 7 7 8 8 8 8 7 7 6 6 5 4 3 3 3 2 3 3 3 3 3
7 5 4 6 5 6 5 3 4 5 7 4 5 3 5 5 6 6 5 5 5 6 6 6 7 8 8 8 7 7 7 7 6 6 5 5 4 3 3 2 2 3 3 4
6 6 6 6 4 5 3 2 5 7 7 6 5 6 3 5 5 5 5 5 5 6 6 6 7 8 8 8 7 7 7 7 7 7 6 5 5 3 3 2 3 3 3 4
6 4 4 5 4 3 3 4 6 7 8 7 4 7 1 2 1 1 3 4 5 5 6 6 7 7 7 7 7 7 7 6 6 6 6 6 5 4 4 4 3 3 3 3
8 7 6 5 6 6 7 7 6 6 7 4 1 6 1 3 1 1 1 2 4 5 6 7 7 7 7 7 7 7 7 6 6 6 6 6 6 6 6 5 4 4 3 3
9 8 8 6 8 6 8 9 7 6 5 2 5 4 2 3 2 0 1 2 3 4 5 6 6 6 7 7 7 7 7 6 6 6 6 5 6 5 4 5 4 4 3 3
6 6 6 5 5 7 8 8 8 9 8 8 3 2 4 3 2 1 1 2 2 3 4 5 6 6 6 6 7 7 7 7 6 7 6 6 5 5 4 4 4 4 4 3
7 6 6 5 7 4 6 6 7 8 7 9 6 6 2 3 2 1 1 1 1 1 2 4 5 5 5 6 6 6 6 7 6 6 5 4 5 5 5 4 4 4 4 4
8 9 7 8 7 6 6 7 7 8 8 9 7 1 3 1 0 1 1 1 1 1 2 3 4 4 4 5 6 6 6 6 6 6 5 5 5 5 5 4 4 4 4 4
7 8 7 7 5 4 6 7 8 8 7 8 9 1 5 2 1 0 1 1 1 1 1 3 4 4 3 3 4 5 5 6 6 6 5 5 5 4 5 5 5 5 5 4
4 8 9 10 11 8 7 7 9 10 9 8 9 2 5 3 2 1 1 2 1 2 2 3 4 3 2 2 2 3 4 5 6 5 5 5 5 5 5 5 4 4 4 4
6 8 9 9 5 5 8 8 8 11 9 8 8 5 1 1 0 1 1 1 1 2 1 2 2 2 2 1 1 2 3 4 5 5 5 5 5 5 5 4 4 4 4 4
6 8 8 7 6 6 7 8 8 10 10 9 7 6 3 2 1 1 0 0 1 1 0 1 1 1 1 1 1 2 2 3 4 5 5 5 5 4 4 4 4 4 4 4
4 6 7 8 8 8 8 7 8 9 8 9 8 6 2 1 1 0 0 1 1 1 0 0 0 1 1 2 2 2 2 2 4 5 5 4 4 4 4 4 4 4 4 4
4 5 8 8 8 10 11 8 8 8 7 8 8 4 1 3 2 2 1 2 1 1 1 1 1 1 1 2 2 2 2 2 3 4 4 4 4 4 4 4 4 4 4 4
6 6 6 7 8 13 3 2 6 8 6 5 4 3 3 3 3 2 1 2 2 2 1 1 2 1 1 1 1 1 2 2 3 3 3 3 3 3 3 3 3 4 3 4
6 7 7 8 10 9 5 4 6 8 6 3 4 3 3 3 4 2 2 2 2 1 1 2 2 1 1 0 0 1 2 2 2 3 3 3 3 3 3 3 3 3 3 3
6 8 9 8 10 10 3 2 3 8 8 1 2 3 3 4 6 2 3 2 2 1 1 1 1 1 1 1 0 1 2 2 2 3 3 3 3 4 4 3 3 2 2 3
7 8 10 10 10 5 2 1 5 8 1 1 2 3 3 3 5 4 3 2 1 1 1 1 1 1 2 1 1 0 1 2 2 2 2 2 2 3 3 2 2 2 2 2
7 7 8 8 11 5 4 2 2 3 3 2 2 3 3 3 2 2 2 2 1 1 2 1 1 1 2 2 1 1 2 2 2 1 1 1 2 2 2 1 2 2 2 2
6 5 4 4 2 4 2 2 3 2 2 3 3 3 3 2 2 2 1 1 1 1 1 1 1 1 2 2 2 2 2 2 1 1 0 1 1 1 1 2 2 2 2 2
4 2 4 4 2 1 1 0 1 1 2 3 3 3 2 2 2 2 1 1 1 1 1 1 1 2 2 2 2 2 2 1 1 0 0 0 1 1 1 1 2 2 2 2
3 4 5 6 3 3 3 1 1 1 2 3 3 3 3 3 3 2 2 1 1 1 1 1 1 1 2 2 2 2 1 1 1 0 0 1 1 1 1 1 1 1 1 1
6 6 7 5 2 4 2 2 2 2 2 3 3 3 3 2 2 3 2 2 1 1 1 1 1 1 1 1 2 2 1 0 0 1 1 1 1 1 1 1 1 3 1 2
Wind_Direction
196 222 228 238 267 310 304 290 270 95 115 176 136 141 149 161 177 175 180 181 182 188 173 172 177 175 172 172 176 180 184 178 186 192 196 196 197 206 209 220 209 230 243 234
202 222 243 260 240 246 251 258 231 151 131 223 156 156 154 174 188 190 191 190 190 182 169 169 172 172 178 178 184 186 189 185 191 195 207 213 221 221 217 233 215 232 238 240
229 217 197 228 223 232 247 264 264 229 182 193 213 195 172 174 185 191 200 198 190 182 177 178 181 182 182 184 191 192 192 188 194 197 201 203 209 228 219 222 224 231 241 242
232 236 228 230 233 249 250 278 256 230 238 228 252 266 156 176 188 201 201 201 198 187 183 183 186 188 189 189 190 192 191 192 194 199 209 213 218 221 222 233 234 228 232 242
209 216 224 233 245 259 285 287 240 241 253 259 240 268 146 175 207 208 202 201 201 195 189 188 190 190 192 188 186 186 186 193 197 205 208 221 229 228 221 224 225 239 229 231
224 212 241 247 234 226 208 209 211 229 243 247 261 273 223 150 243 195 176 190 196 193 189 188 187 186 188 189 187 186 186 195 198 205 213 220 229 234 235 234 234 234 233 228
209 206 207 222 214 193 216 239 233 228 233 236 186 258 328 62 44 323 198 179 183 187 188 189 187 188 189 190 191 192 190 197 200 204 214 221 226 228 231 238 234 245 249 238
216 206 197 209 232 230 224 249 265 273 276 242 188 246 93 88 86 114 152 163 174 182 187 191 189 188 192 193 194 194 193 197 199 205 213 219 224 229 232 234 245 241 255 261
235 215 176 197 227 244 225 239 264 270 272 273 234 210 162 150 173 158 135 143 158 169 182 184 182 187 191 192 194 197 195 199 201 205 211 214 220 230 236 239 241 246 252 254
255 242 191 180 203 211 261 249 245 258 265 269 249 233 208 169 183 161 145 121 92 129 160 168 173 182 187 190 189 193 196 199 202 204 213 210 219 228 234 241 246 250 252 257
248 243 212 199 219 216 210 223 247 255 263 272 273 235 72 130 202 234 210 123 80 87 138 157 161 168 180 187 187 191 195 197 200 204 210 220 218 223 229 235 243 248 252 252
232 249 236 213 202 245 235 237 239 249 250 258 274 264 86 68 50 22 88 89 68 63 109 144 148 151 167 182 185 188 197 198 202 204 207 214 223 226 231 233 239 245 248 248
222 241 231 212 199 201 226 235 244 254 250 250 259 227 96 87 60 49 63 90 87 73 98 133 140 144 153 163 183 190 202 203 204 204 210 215 225 227 234 240 241 241 245 248
256 247 251 253 250 226 224 227 235 247 249 249 256 272 233 167 340 35 63 101 115 97 99 123 139 153 165 164 180 208 214 207 206 208 213 217 224 229 234 237 238 241 245 244
253 241 241 255 259 254 242 234 227 241 260 266 262 267 283 277 299 314 334 144 119 110 120 124 173 166 198 210 209 219 233 219 215 217 221 222 224 225 230 234 236 239 244 244
266 255 234 233 234 240 245 245 236 237 249 257 265 268 319 281 296 171 205 200 200 204 246 290 312 256 222 227 246 247 250 235 220 222 226 226 227 225 228 231 234 237 241 247
241 240 245 234 225 237 232 236 238 236 243 258 262 275 274 265 284 300 279 243 253 257 286 293 286 282 271 251 232 231 253 256 233 225 227 231 232 229 231 235 234 239 242 242
243 250 250 246 231 238 222 218 247 242 241 261 277 294 276 280 288 295 310 267 274 296 302 311 300 288 286 266 235 224 229 248 247 227 223 226 228 233 237 242 243 246 250 247
239 238 251 249 241 236 206 208 237 242 233 252 265 272 280 281 262 246 19 332 297 293 304 304 302 307 352 14 185 218 234 242 248 242 239 236 231 228 231 240 246 247 251 253
205 228 243 245 254 248 211 168 246 247 223 186 281 282 282 267 267 342 13 333 328 342 351 352 358 27 28 12 316 229 246 252 261 257 249 246 230 227 232 240 244 242 245 249
200 211 230 241 246 243 68 91 218 234 231 42 292 290 287 288 317 341 341 351 349 7 7 5 13 31 36 26 43 315 288 283 287 270 248 239 225 224 228 234 234 242 240 245
232 219 218 235 242 225 84 201 250 20 30 1 330 316 302 291 312 328 351 7 350 1 15 6 360 15 34 27 360 316 326 322 307 278 232 228 231 228 207 214 223 229 235 232
251 288 279 265 284 65 59 15 21 0 354 348 334 328 314 298 287 307 334 357 349 343 357 347 345 7 29 22 348 328 344 333 312 285 240 214 230 229 203 209 215 215 221 236
211 261 265 260 202 183 201 307 344 344 336 331 319 308 304 302 302 299 314 327 319 315 319 331 340 2 357 345 348 350 359 326 290 280 201 167 160 196 197 222 225 224 224 227
263 236 244 252 249 228 212 234 307 334 337 330 324 312 301 292 294 304 301 294 287 272 287 297 306 325 324 332 341 353 11 339 317 313 162 153 162 170 171 207 313 276 317 295
234 242 255 266 269 266 246 253 275 284 298 304 307 303 304 300 299 302 303 303 290 280 283 283 297 306 311 325 341 352 346 231 259 220 214 211 185 172 197 176 108 41 24 77